Location: Taukkyan
(23.1052°N, 94.0030°E)
Time: 11:49:01
(UTC+00:00)

Cosmos 2151 Rocket - Pass Details

Date: 06 July 2020
Orbit: 616 x 643 km, 82.5° (Epoch: 15 August)

Event Time Altitude Azimuth Distance (km) Brightness Sun altitude
Rises 22:28:41 0° 175° (S) 2,934 6.8 -8.1°
Reaches altitude 10° 22:30:57 10° 171° (S) 2,028 6.0 -7.6°
Maximum altitude 22:35:21 57° 93° (E) 756 4.4 -6.8°
Drops below altitude 10° 22:39:47 10° 15° (NNE) 2,035 6.9 -5.8°
Sets 22:42:04 0° 11° (NNE) 2,944 7.6 -5.4°
